• In Czech Republic
  • List of Countries
  • For 7 days
  • Water Temperature
  • Satellite Maps
  • Weather Map
  • Weather Widgets
  • user-avatar
    Login

    Hourly Weather Lubango

    Today, 20 May, Sunday

    Time Temperature Precipitation Wind Pressure Humidity
    00:00 +12°C° 0 mm 1 mps 608 mmHg 69%
    01:00 +12°C° 0 mm 1 mps 608 mmHg 71%
    02:00 +12°C° 0 mm 1 mps 608 mmHg 69%
    03:00 +12°C° 0 mm 1 mps 607 mmHg 68%
    04:00 +11°C° 0 mm 1 mps 607 mmHg 67%
    05:00 +12°C° 0 mm 1 mps 607 mmHg 64%
    06:00 +12°C° 0 mm 1 mps 608 mmHg 61%
    07:00 +14°C° 0 mm 1 mps 609 mmHg 56%
    08:00 +18°C° 0 mm 1 mps 610 mmHg 47%
    09:00 +21°C° 0 mm 1 mps 611 mmHg 39%
    10:00 +24°C° 0 mm 1 mps 612 mmHg 30%
    11:00 +25°C° 0 mm 2 mps 612 mmHg 28%
    12:00 +26°C° 0 mm 2 mps 612 mmHg 26%
    13:00 +27°C° 0 mm 3 mps 612 mmHg 24%
    14:00 +26°C° 0 mm 3 mps 611 mmHg 25%
    15:00 +26°C° 0 mm 3 mps 611 mmHg 26%
    16:00 +25°C° 0 mm 3 mps 610 mmHg 27%
    17:00 +21°C° 0 mm 3 mps 609 mmHg 33%
    18:00 +18°C° 0 mm 2 mps 608 mmHg 39%
    19:00 +15°C° 0 mm 2 mps 607 mmHg 45%
    20:00 +14°C° 0 mm 1 mps 607 mmHg 46%
    21:00 +13°C° 0 mm 1 mps 608 mmHg 48%
    22:00 +13°C° 0 mm 1 mps 608 mmHg 49%
    23:00 +12°C° 0 mm 1 mps 608 mmHg 49%

    Tomorrow, 21 May, Monday

    Time Temperature Precipitation Wind Pressure Humidity
    00:00 +12°C° 0 mm 1 mps 608 mmHg 50%
    01:00 +12°C° 0 mm 1 mps 608 mmHg 50%
    02:00 +12°C° 0 mm 1 mps 608 mmHg 50%
    03:00 +12°C° 0 mm 1 mps 608 mmHg 50%
    04:00 +12°C° 0 mm 1 mps 608 mmHg 50%
    05:00 +12°C° 0 mm 1 mps 608 mmHg 49%
    06:00 +12°C° 0 mm 1 mps 608 mmHg 49%
    07:00 +13°C° 0 mm 1 mps 609 mmHg 48%
    08:00 +16°C° 0 mm 1 mps 610 mmHg 42%
    09:00 +21°C° 0 mm 1 mps 612 mmHg 36%
    10:00 +24°C° 0 mm 1 mps 613 mmHg 30%
    11:00 +25°C° 0 mm 1 mps 613 mmHg 28%
    12:00 +26°C° 0 mm 1 mps 613 mmHg 27%
    13:00 +27°C° 0 mm 2 mps 613 mmHg 26%
    14:00 +26°C° 0 mm 2 mps 612 mmHg 28%
    15:00 +25°C° 0 mm 2 mps 611 mmHg 30%
    16:00 +24°C° 0 mm 2 mps 610 mmHg 31%
    17:00 +21°C° 0 mm 2 mps 610 mmHg 35%
    18:00 +18°C° 0 mm 2 mps 609 mmHg 39%
    19:00 +16°C° 0 mm 1 mps 608 mmHg 42%
    20:00 +15°C° 0 mm 1 mps 608 mmHg 44%
    21:00 +14°C° 0 mm 1 mps 608 mmHg 45%
    22:00 +13°C° 0 mm 1 mps 609 mmHg 46%
    23:00 +13°C° 0 mm 1 mps 609 mmHg 46%

    Day after tomorrow, 22 May, Tuesday

    Time Temperature Precipitation Wind Pressure Humidity
    00:00 +13°C° 0 mm 1 mps 609 mmHg 46%
    01:00 +13°C° 0 mm 1 mps 609 mmHg 46%
    02:00 +13°C° 0 mm 1 mps 608 mmHg 46%
    03:00 +13°C° 0 mm 1 mps 608 mmHg 45%
    04:00 +12°C° 0 mm 1 mps 608 mmHg 45%
    05:00 +13°C° 0 mm 1 mps 608 mmHg 45%
    06:00 +13°C° 0 mm 1 mps 609 mmHg 44%
    07:00 +13°C° 0 mm 1 mps 609 mmHg 44%
    08:00 +18°C° 0 mm 1 mps 611 mmHg 38%
    09:00 +20°C° 0 mm 2 mps 612 mmHg 31%
    10:00 +25°C° 0 mm 2 mps 614 mmHg 25%
    11:00 +26°C° 0 mm 2 mps 614 mmHg 23%
    12:00 +27°C° 0 mm 2 mps 613 mmHg 21%
    13:00 +28°C° 0 mm 2 mps 613 mmHg 20%
    14:00 +27°C° 0 mm 2 mps 613 mmHg 22%
    15:00 +26°C° 0 mm 1 mps 612 mmHg 24%
    16:00 +25°C° 0 mm 1 mps 611 mmHg 26%
    17:00 +23°C° 0 mm 1 mps 611 mmHg 31%
    18:00 +21°C° 0 mm 1 mps 610 mmHg 35%
    19:00 +18°C° 0 mm 1 mps 610 mmHg 39%
    20:00 +18°C° 0 mm 1 mps 610 mmHg 41%
    21:00 +16°C° 0 mm 1 mps 610 mmHg 43%
    22:00 +15°C° 0 mm 1 mps 610 mmHg 45%
    23:00 +16°C° 0 mm 1 mps 610 mmHg 44%

    23 May, Wednesday

    Time Temperature Precipitation Wind Pressure Humidity
    00:00 +16°C° 0 mm 1 mps 610 mmHg 44%
    01:00 +16°C° 0 mm 1 mps 610 mmHg 44%
    02:00 +15°C° 0 mm 1 mps 610 mmHg 45%
    03:00 +15°C° 0 mm 1 mps 610 mmHg 45%
    04:00 +15°C° 0 mm 1 mps 610 mmHg 46%
    05:00 +15°C° 0 mm 1 mps 610 mmHg 46%
    06:00 +15°C° 0 mm 1 mps 610 mmHg 46%
    07:00 +15°C° 0 mm 1 mps 611 mmHg 46%
    08:00 +17°C° 0 mm 2 mps 612 mmHg 42%
    09:00 +19°C° 0 mm 2 mps 612 mmHg 38%
    10:00 +21°C° 0 mm 2 mps 613 mmHg 34%
    11:00 +23°C° 0 mm 2 mps 613 mmHg 32%
    12:00 +24°C° 0 mm 2 mps 613 mmHg 29%
    13:00 +25°C° 0 mm 3 mps 612 mmHg 26%
    14:00 +24°C° 0 mm 2 mps 612 mmHg 27%
    15:00 +24°C° 0 mm 2 mps 612 mmHg 28%
    16:00 +24°C° 0 mm 2 mps 611 mmHg 29%
    17:00 +21°C° 0 mm 2 mps 611 mmHg 32%
    18:00 +19°C° 0 mm 2 mps 611 mmHg 34%
    19:00 +17°C° 0 mm 2 mps 611 mmHg 36%
    20:00 +18°C° 0 mm 1 mps 611 mmHg 37%
    21:00 +16°C° 0 mm 1 mps 611 mmHg 38%
    22:00 +15°C° 0 mm 1 mps 611 mmHg 40%
    23:00 +15°C° 0 mm 1 mps 610 mmHg 40%

    24 May, Thursday

    Time Temperature Precipitation Wind Pressure Humidity
    00:00 +14°C° 0 mm 2 mps 610 mmHg 40%
    01:00 +14°C° 0 mm 2 mps 610 mmHg 39%
    02:00 +14°C° 0 mm 2 mps 609 mmHg 40%
    03:00 +13°C° 0 mm 2 mps 609 mmHg 40%
    04:00 +13°C° 0 mm 2 mps 609 mmHg 40%
    05:00 +13°C° 0 mm 2 mps 609 mmHg 40%
    06:00 +13°C° 0 mm 2 mps 609 mmHg 40%
    07:00 +13°C° 0 mm 2 mps 610 mmHg 40%
    08:00 +16°C° 0 mm 3 mps 611 mmHg 33%
    09:00 +20°C° 0 mm 4 mps 612 mmHg 27%
    10:00 +23°C° 0 mm 5 mps 614 mmHg 20%
    11:00 +25°C° 0 mm 4 mps 613 mmHg 19%
    12:00 +26°C° 0 mm 4 mps 613 mmHg 18%
    13:00 +26°C° 0 mm 3 mps 612 mmHg 16%
    14:00 +26°C° 0 mm 3 mps 612 mmHg 17%
    15:00 +26°C° 0 mm 3 mps 611 mmHg 17%
    16:00 +26°C° 0 mm 2 mps 611 mmHg 18%
    17:00 +23°C° 0 mm 2 mps 610 mmHg 22%
    18:00 +18°C° 0 mm 2 mps 609 mmHg 27%
    19:00 +15°C° 0 mm 1 mps 609 mmHg 31%
    20:00 +15°C° 0 mm 1 mps 609 mmHg 32%
    21:00 +14°C° 0 mm 1 mps 609 mmHg 33%
    22:00 +14°C° 0 mm 1 mps 609 mmHg 34%
    23:00 +13°C° 0 mm 1 mps 609 mmHg 35%

    25 May, Friday

    Time Temperature Precipitation Wind Pressure Humidity
    00:00 +13°C° 0 mm 2 mps 608 mmHg 36%
    01:00 +13°C° 0 mm 2 mps 608 mmHg 36%
    02:00 +12°C° 0 mm 2 mps 608 mmHg 38%
    03:00 +12°C° 0 mm 2 mps 608 mmHg 39%
    04:00 +12°C° 0 mm 2 mps 607 mmHg 40%
    05:00 +12°C° 0 mm 2 mps 608 mmHg 42%
    06:00 +12°C° 0 mm 2 mps 608 mmHg 44%
    07:00 +11°C° 0 mm 3 mps 608 mmHg 46%
    08:00 +16°C° 0 mm 3 mps 610 mmHg 39%
    09:00 +19°C° 0 mm 4 mps 611 mmHg 32%
    10:00 +22°C° 0 mm 5 mps 613 mmHg 25%
    11:00 +23°C° 0 mm 4 mps 612 mmHg 23%
    12:00 +25°C° 0 mm 3 mps 612 mmHg 21%
    13:00 +26°C° 0 mm 3 mps 612 mmHg 19%
    14:00 +26°C° 0 mm 3 mps 611 mmHg 19%
    15:00 +26°C° 0 mm 3 mps 611 mmHg 20%
    16:00 +26°C° 0 mm 2 mps 611 mmHg 20%
    17:00 +23°C° 0 mm 2 mps 610 mmHg 25%
    18:00 +19°C° 0 mm 2 mps 609 mmHg 31%
    19:00 +15°C° 0 mm 1 mps 608 mmHg 36%
    20:00 +15°C° 0 mm 1 mps 608 mmHg 38%
    21:00 +14°C° 0 mm 2 mps 608 mmHg 39%
    22:00 +14°C° 0 mm 2 mps 608 mmHg 40%
    23:00 +13°C° 0 mm 2 mps 608 mmHg 41%
    Show more